Вернуться в каталог

LEMUR 2 JEROEN

LostНаукаLEO
NORAD 40934·PAYLOAD·🇺🇸 United States

Запущен Sep 28, 2015 с Satish Dhawan Space Centre

Loading…

Ближайшие Пролёты (ближайшие 24 часа)

TLE

УстаревшееSource: Space-Track

Эпоха: Jan 4, 2024, 11:16 UTC

1 40934U 15052E   24004.46951125  .00005017  00000-0  51754-3 0  9994
2 40934   6.0073  50.3046 0009895 338.4222  21.5489 14.83222395447206

Отслеживайте LEMUR 2 JEROEN в реальном времени с AllMySat

Download on the App Store